TimePDT,TemperatureF,Dew PointF,Humidity,Sea Level PressureIn,VisibilityMPH,Wind Direction,Wind SpeedMPH,Gust SpeedMPH,PrecipitationIn,Events,Conditions,WindDirDegrees,DateUTC
12:53 AM,30.9,21.9,69,30.30,10.0,SSE,10.4,-,N/A,,Clear,160,2011-10-18 07:53:00
1:53 AM,30.0,21.9,72,30.30,10.0,South,10.4,-,N/A,,Clear,180,2011-10-18 08:53:00
2:53 AM,28.9,21.9,75,30.30,10.0,South,10.4,-,N/A,,Clear,170,2011-10-18 09:53:00
3:53 AM,28.0,21.0,75,30.30,10.0,South,10.4,-,N/A,,Clear,170,2011-10-18 10:53:00
4:53 AM,27.0,21.0,78,30.31,10.0,South,8.1,-,N/A,,Clear,180,2011-10-18 11:53:00
5:53 AM,27.0,21.0,78,30.35,10.0,South,9.2,-,N/A,,Clear,170,2011-10-18 12:53:00
6:53 AM,26.1,19.9,78,30.39,10.0,South,9.2,-,N/A,,Clear,170,2011-10-18 13:53:00
7:53 AM,30.0,23.0,75,30.42,10.0,South,8.1,-,N/A,,Clear,170,2011-10-18 14:53:00
8:53 AM,39.9,21.9,49,30.42,10.0,Calm,Calm,-,N/A,,Clear,0,2011-10-18 15:53:00
9:53 AM,48.9,21.9,35,30.36,10.0,Variable,6.9,-,N/A,,Clear,0,2011-10-18 16:53:00
10:53 AM,54.0,21.9,29,30.34,10.0,North,6.9,-,N/A,,Clear,360,2011-10-18 17:53:00
11:53 AM,57.9,19.9,23,30.31,10.0,NNE,3.5,-,N/A,,Clear,20,2011-10-18 18:53:00
12:53 PM,61.0,21.9,22,30.27,10.0,Variable,4.6,-,N/A,,Clear,0,2011-10-18 19:53:00
1:53 PM,64.0,23.0,21,30.23,10.0,North,6.9,-,N/A,,Clear,350,2011-10-18 20:53:00
2:53 PM,66.0,23.0,20,30.20,10.0,NNE,6.9,-,N/A,,Clear,20,2011-10-18 21:53:00
3:53 PM,66.9,21.9,18,30.19,10.0,North,5.8,-,N/A,,Clear,360,2011-10-18 22:53:00
4:53 PM,66.0,23.0,20,30.18,10.0,North,3.5,-,N/A,,Clear,10,2011-10-18 23:53:00
5:53 PM,57.0,26.1,30,30.21,10.0,NE,3.5,-,N/A,,Clear,40,2011-10-19 00:53:00
6:53 PM,46.0,28.9,51,30.27,10.0,SSE,9.2,-,N/A,,Clear,150,2011-10-19 01:53:00
7:53 PM,45.0,28.9,53,30.25,10.0,South,6.9,-,N/A,,Clear,180,2011-10-19 02:53:00
8:53 PM,41.0,27.0,57,30.22,10.0,South,10.4,-,N/A,,Clear,170,2011-10-19 03:53:00
9:53 PM,43.0,27.0,53,30.17,10.0,South,8.1,-,N/A,,Clear,190,2011-10-19 04:53:00
10:53 PM,35.1,26.1,70,30.16,10.0,SSW,3.5,-,N/A,,Clear,210,2011-10-19 05:53:00
11:53 PM,37.0,26.1,65,30.12,10.0,South,9.2,-,N/A,,Clear,180,2011-10-19 06:53:00